Grand Island, NE

5:04 PM CST on December 06, 2019 (GMT -0600)
Central Nebraska Regional

Weather History for KGRI - November, 2019

Change the Weather History Date:

Saturday, November 16, 2019

  Actual Average Record
Temperature  
Mean Temperature 47 °F 38 °F  
Max Temperature 59 °F 49 °F 77 °F (1896)
Min Temperature 35 °F 27 °F -3 °F (2014)
Degree Days  
Heating Degree Days 18 27  
Month to date heating degree days 429 372  
Since 1 July heating degree days 990 895  
Cooling Degree Days 0 0  
Month to date cooling degree days 0 0  
Year to date cooling degree days 1153 1034  
Moisture  
Dew Point 31 °F    
Average Humidity 56    
Maximum Humidity 72    
Minimum Humidity 37    
Precipitation  
Precipitation 0.00 in 0.04 in 2.60 in (1996)
Month to date precipitation 0.06 0.66  
Year to date precipitation 36.36 25.52  
Snow  
Snow 0.00 in 0.10 in 2.40 in (1978)
Month to date snowfall 1.5 1.3  
Since 1 July snowfall 3.1 2.4  
Since 1 September snowfall 3.1 2.4  
Snow Depth 0.00 in    
Sea Level Pressure  
Sea Level Pressure 30.02 in    
Wind  
Wind Speed 11 mph ()    
Max Wind Speed 22 mph    
Max Gust Speed 27 mph    
Visibility 10.0 miles    
Events      
T = Trace of Precipitation, MM = Missing Value Source: Averaged Metar Reports

Daily Weather History Graph

Daily Weather History Graph

Search for Another Location

Airport or City:

Astronomy

Nov. 16, 2019 Rise Set
Actual Time 7:21 AM CST 5:13 PM CST
Civil Twilight 6:52 AM CST 5:43 PM CST
Nautical Twilight 6:18 AM CST 6:16 PM CST
Astronomical Twilight 5:46 AM CST 6:49 PM CST
Moon 8:47 PM CST (11/16) 11:17 AM CST (11/16)
Length of Visible Light 10h 51m
Length of Day
9h 52m
Waning Gibbous, 82% of the Moon is Illuminated
Nov 16
Waning Gibbous
Nov 19
Last Quarter
Nov 26
New
Dec 4
First Quarter
Dec 11
Full

Hourly Weather History & Observations

Time (CST) Temp. Windchill Dew Point Humidity Pressure Visibility Wind Dir Wind Speed Gust Speed Precip Events Conditions
12:53 AM 42.1 °F 34.5 °F 28.9 °F 60% 30.09 in 10.0 mi SSE 15.0 mph - N/A   Clear
1:53 AM 42.1 °F 35.2 °F 28.9 °F 60% 30.07 in 10.0 mi South 12.7 mph - N/A   Clear
2:53 AM 39.9 °F 32.5 °F 28.9 °F 65% 30.07 in 10.0 mi SSE 12.7 mph - N/A   Clear
3:53 AM 37.9 °F 30.5 °F 28.0 °F 68% 30.06 in 10.0 mi SSE 11.5 mph - N/A   Clear
4:53 AM 36.0 °F 28.0 °F 27.0 °F 70% 30.06 in 10.0 mi SSE 11.5 mph - N/A   Clear
5:53 AM 36.0 °F 27.5 °F 27.0 °F 70% 30.05 in 10.0 mi SSE 12.7 mph - N/A   Clear
6:53 AM 35.1 °F 26.9 °F 27.0 °F 72% 30.05 in 10.0 mi SSE 11.5 mph - N/A   Clear
7:53 AM 36.0 °F 27.5 °F 27.0 °F 70% 30.06 in 10.0 mi South 12.7 mph - N/A   Clear
8:53 AM 39.9 °F 31.1 °F 28.9 °F 65% 30.05 in 10.0 mi South 17.3 mph - N/A   Clear
9:53 AM 45.0 °F 38.2 °F 30.0 °F 56% 30.03 in 10.0 mi South 15.0 mph 21.9 mph N/A   Clear
10:53 AM 48.9 °F - 30.9 °F 50% 30.01 in 10.0 mi South 12.7 mph 21.9 mph N/A   Clear
11:53 AM 53.1 °F - 30.9 °F 43% 29.99 in 10.0 mi South 12.7 mph - N/A   Clear
12:53 PM 55.9 °F - 32.0 °F 40% 29.95 in 10.0 mi South 11.5 mph - N/A   Clear
1:53 PM 57.0 °F - 32.0 °F 39% 29.93 in 10.0 mi South 15.0 mph - N/A   Clear
2:53 PM 57.9 °F - 32.0 °F 37% 29.91 in 10.0 mi South 11.5 mph - N/A   Clear
3:53 PM 57.0 °F - 32.0 °F 39% 29.94 in 10.0 mi SW 11.5 mph - N/A   Clear
4:53 PM 54.0 °F - 32.0 °F 43% 29.95 in 10.0 mi South 5.8 mph - N/A   Clear
5:53 PM 48.9 °F - 32.0 °F 52% 29.98 in 10.0 mi SW 3.5 mph - N/A   Clear
6:53 PM 48.0 °F - 33.1 °F 56% 30.01 in 10.0 mi WNW 3.5 mph - N/A   Clear
7:53 PM 51.1 °F - 34.0 °F 52% 30.04 in 10.0 mi NNW 12.7 mph - N/A   Scattered Clouds
8:53 PM 50.0 °F - 34.0 °F 54% 30.05 in 10.0 mi NNW 15.0 mph - N/A   Partly Cloudy
9:53 PM 50.0 °F - 35.1 °F 57% 30.05 in 10.0 mi North 21.9 mph 26.5 mph N/A   Clear
10:53 PM 46.9 °F - 35.1 °F 63% 30.06 in 10.0 mi NNW 13.8 mph - N/A   Clear
11:53 PM 45.0 °F 39.3 °F 35.1 °F 68% 30.08 in 10.0 mi NNW 11.5 mph - N/A   Clear